Location: Albany
(35.0000°S, 118.0000°E)
Time: 10:55:24
(UTC-04:00)

Atlas Centaur 2 - Visible Passes

Search period start: 30 July 2016 00:00
Search period end: 09 August 2016 00:00
Orbit: 459 x 1315 km, 30.4° (Epoch: 29 July)

Date Brightness Start Highest point End Pass type
(mag) Time Alt. Az. Time Alt. Az. Time Alt. Az.
30 Jul 5.3 14:52:52 11° ENE 14:52:52 11° ENE 14:53:21 10° ENE visible
30 Jul 3.2 16:35:32 46° NNW 16:36:42 49° NNE 16:44:27 10° E visible
30 Jul 3.4 18:18:44 10° W 18:26:10 64° N 18:34:38 10° ENE visible
31 Jul 5.3 14:50:14 11° E 14:50:14 11° E 14:50:29 10° E visible
31 Jul 3.0 16:32:54 51° N 16:33:34 53° NNE 16:41:19 10° E visible
31 Jul 3.3 18:15:46 10° W 18:23:04 63° N 18:31:27 10° ENE visible
01 Aug 5.3 14:47:32 10° E 14:47:32 10° E 14:47:32 10° E visible
01 Aug 2.9 16:30:12 56° N 16:30:28 56° N 16:38:09 10° E visible
01 Aug 3.3 18:12:52 10° W 18:19:57 60° N 18:28:13 10° ENE visible
02 Aug 2.8 16:27:29 58° N 16:27:29 58° N 16:34:59 10° E visible
02 Aug 3.3 18:10:09 11° W 18:16:50 56° N 18:24:58 10° ENE visible
03 Aug 2.8 16:24:45 58° NNE 16:24:45 58° NNE 16:31:48 10° E visible
03 Aug 3.4 18:07:25 12° W 18:13:43 52° N 18:21:40 10° ENE visible
04 Aug 2.9 16:22:01 56° NNE 16:22:01 56° NNE 16:28:35 10° ENE visible
04 Aug 3.4 18:04:40 13° W 18:10:36 46° NNW 18:18:18 10° NE visible
05 Aug 3.0 16:19:17 51° NNE 16:19:17 51° NNE 16:25:22 10° ENE visible
05 Aug 3.5 18:01:56 13° W 18:07:30 41° NNW 18:14:52 10° NE visible
06 Aug 3.1 16:16:34 46° NNE 16:16:34 46° NNE 16:22:08 10° ENE visible
06 Aug 3.7 17:59:14 13° WNW 18:04:25 35° NNW 18:11:21 10° NE visible
07 Aug 3.3 16:13:53 40° NNE 16:13:53 40° NNE 16:18:51 10° ENE visible
07 Aug 3.8 17:56:33 13° WNW 18:01:19 29° NNW 18:07:42 10° NE visible
08 Aug 3.6 16:11:14 33° NNE 16:11:14 33° NNE 16:15:33 10° ENE visible
08 Aug 4.0 17:53:54 12° WNW 17:58:14 24° NNW 18:03:55 10° NNE visible
